Вернуться в каталог

DELTA 1 DEB

АктивенSSO
NORAD 21472·DEBRIS·🇺🇸 United States

Запущен Jun 12, 1975 с Vandenberg Space Force Base

Loading…

Ближайшие Пролёты (ближайшие 24 часа)

TLE

СвежийSource: Space-Track

Эпоха: Sep 13, 2026, 14:12 UTC

1 21472U 75052FG  26256.59200953  .00000518  00000-0  62638-3 0  9991
2 21472  99.7647 123.2552 0245608 270.9877  86.3133 13.59513047743810

Отслеживайте DELTA 1 DEB в реальном времени с AllMySat

Download on the App Store